www.pogodaiklimat.ru

Погода и климат >> Архив погоды >> Россия >> Нижегородская область >> Нижний Новгород аэропорт


ПОГОДА в Нижнем Новгороде аэропорт

  • Прогноз погоды в Нижнем Новгороде аэропорт
  • Монитор погоды в Нижнем Новгороде аэропорт
  • Климат города

АРХИВ ПОГОДЫ в Нижнем Новгороде аэропорт

Время (UTC), дата Ветер
(напр.,м/с)
 
Видим.   Явления Облачность Т
(С)
Тd
(С)
f
(%)
Тe
(С)
Тes
(С)
Комфортность P
(гПа)
Po
(гПа)
Тmin
(С)
Tmax
(С)
R
(мм)
R24
(мм)
S
(см)
03 16.04 штиль 0
{1}
7000 м ясно +0.2 -2.8 80 -1 -0 1019.6 1020.0 -0.9
06 16.04 В 1-1
{2}
10 км ясно +10.0 -1.7 44 +10 +18 1019.3 1019.0
09 16.04 С 3-5
{6}
10 км ясно +14.3 -4.9 26 +14 +23 1018.5 1019.0
12 16.04 СВ 3-6
{6}
10 км ясно +15.9 -5.2 23 +16 +21 1017.5 1018.0
15 16.04 С 3-4
{7}
10 км ясно +15.4 -2.0 30 +15 +16 1016.3 1016.0 +16.5
18 16.04 штиль 0
{3}
10 км 6/0
[Ac trans Ci fib]
+8.0 -1.0 53 +8 +8 1017.0 1017.0
21 16.04 Ю 1-1
{1}
6000 м 9/0
[Ac trans Ci fib]
+5.6 +0.8 71 +5 +5 1016.6 1017.0
00 17.04 штиль 0
{1}
9000 м 9/0
[Ac trans Ci fib]
+3.6 -2.3 65 +3 +3 1016.6 1017.0
03 17.04 штиль 0
{2}
10 км 3/0
[Ac trans]
+4.0 -2.4 63 +3 +4 1016.5 1017.0 +1.6
06 17.04 нст 1-2
{2}
10 км ясно +14.7 -1.8 32 +15 +23 1016.2 1016.0
09 17.04 Ю 3-3
{4}
10 км 4/0
[Ac trans]
+18.3 -3.1 23 +18 +26 1015.6 1016.0
12 17.04 нст 2-4
{7}
10 км 5/1 1000 м
[Cu hum Ci fib]
+20.0 -0.6 25 +21 +26 комфорт 1014.7 1015.0
15 17.04 С 4-5
{7}
10 км 8/0
[Ac trans Ci fib]
+17.8 -0.4 29 +18 +18 1014.6 1015.0 +20.3
18 17.04 С 1-1
{5}
10 км 9/0
[Ac trans Ci fib]
+11.2 -0.6 44 +11 +11 1015.6 1016.0
21 17.04 нст 1-1
{1}
10 км 6/0
[Ci fib]
+12.1 -2.5 36 +13 +13 1015.3 1015.0
00 18.04 В 2-3
{4}
10 км 4/0
[Ci fib]
+6.7 +1.4 69 +5 +5 1014.9 1015.0
03 18.04 В 3-4
{5}
10 км 10/0
[Ac trans Cs]
+6.4 -0.5 61 +4 +4 1014.0 1014.0 +5.6
06 18.04 В 3-4
{4}
10 км 10/0
[Ac lent]
+8.7 -1.4 49 +7 +8 1013.5 1014.0
09 18.04 В 3-5
{5}
10 км 10/3 600 м
[Sc As op]
+10.9 -0.2 46 +9 +11 1012.3 1012.0
12 18.04 В 4-5
{6}
10 км слабый дождь 9/3 1000 м
[Sc Ac trans]
+12.1 +1.4 48 +10 +12 1011.5 1012.0
18 18.04 В 5-7
{9}
10 км слабый дождь 10/6 900 м
[Sc As op]
+9.5 +3.9 68 +6 +6 1008.3 1008.0
21 18.04 В 6-9
{9}
10 км {дождь} 10/5 1200 м
[Sc Ac As]
+9.7 +1.9 58 +6 +6 1005.9 1006.0
00 19.04 СВ 4-6
{9}
10 км слабый дождь 10/10 480 м
[Sc]
+7.8 +0.1 58 +5 +5 1003.8 1004.0
03 19.04 С 5-6
{6}
10 км слабый дождь 10/10 420 м
[Sc]
+4.2 +2.9 91 -1 -1 1002.5 1003.0 +4.2 2
06 19.04 СВ 6-8
{9}
5000 м слабый дождь 10/10 270 м
[Frnb Ns]
+4.2 +3.5 95 -1 -1 1001.8 1002.0 +4.1
09 19.04 СВ 6-8
{8}
5000 м слабый дождь 10/10 180 м
[Frnb Ns]
+5.4 +4.7 95 0 0 1002.2 1002.0
12 19.04 СВ 5-7
{8}
9000 м слабый ливневой дождь 10/10 210 м
[Cb cap As op]
+6.5 +5.5 93 +2 +2 1002.9 1003.0
15 19.04 С 4-5
{7}
4800 м слабый ливневой дождь 10/10 240 м
[Cb cap As op]
+6.5 +6.1 97 +3 +3 1003.4 1003.0 +6.6 7
18 19.04 С 2-3
{6}
3600 м в посл. час дождь {ливн. осадки} 10/10 400 м
[Sc]
+6.8 +6.5 98 +4 +4 1004.7 1005.0
21 19.04 СЗ 2-3
{4}
2900 м туман 9/0
[Ci fib]
+4.2 +4.2 100 +1 +1 1005.4 1005.0
00 20.04 С 3-4
{4}
10 км {туман} 6/0
[Ci fib]
+3.2 +1.6 89 -1 -1 1006.8 1007.0
03 20.04 С 3-5
{6}
10 км 6/0
[Ci fib]
+3.1 -0.7 76 -1 -0 1008.6 1009.0 +2.2 3
06 20.04 С 4-7
{8}
10 км 6/0
[Ci fib]
+7.3 -0.6 57 +4 +8 1010.0 1010.0
09 20.04 С 6-9
{10}
10 км 5/5 1000 м
[Cu hum]
+8.3 -1.2 51 +5 +7 1010.6 1011.0
12 20.04 С 5-8
{12}
10 км ясно +9.0 -4.5 38 +6 +10 1011.0 1011.0
15 20.04 СЗ 4-6
{10}
10 км 4/0
[Ci fib]
+8.1 -4.6 40 +6 +6 1011.4 1011.0 +9.3
18 20.04 С 2-3
{8}
10 км 4/0
[Ac trans Ci fib]
+3.0 -3.3 63 0 0 1012.0 1012.0
21 20.04 штиль 0-1
{2}
10 км 4/0
[Ac trans Ci fib]
0.0 -3.7 76 -1 -1 1011.3 1011.0
00 21.04 штиль 0
{2}
10 км 4/0
[Ac trans Ci fib]
-1.1 -3.6 83 -2 -2 1010.1 1010.0
03 21.04 ЮВ 2-3
{3}
10 км 9/0
[Ac trans Ci fib]
+0.8 -4.6 67 -2 -2 1008.0 1008.0 -1.5
06 21.04 ЮВ 3-4
{5}
10 км 10/8 660 м
[Sc Ac As]
+4.6 -2.7 59 +2 +2 1004.7 1005.0
09 21.04 Ю 6-8
{11}
10 км слабый дождь 10/10 570 м
[Sc]
+5.2 +1.7 78 0 0 999.6 1000.0
12 21.04 Ю 7-10
{14}
10 км в посл. час дождь 10/10 500 м
[Sc]
+6.3 +4.3 87 +1 +1 993.0 993.0
15 21.04 Ю 7-10
{11}
10 км {ливн. осадки} 9/4 1000 м
[Sc Ac trans]
+10.1 +6.4 78 +6 +7 986.8 987.0 +10.1 2
18 21.04 штиль 0-1
{13}
4400 м слабый ливневой дождь 10/10 330 м
[Cb cap]
+9.3 +8.4 94 +8 +8 982.8 983.0
21 21.04 З 4-7
{8}
10 км в посл. час ливневой дождь 10/10 330 м
[Sc]
+9.4 +8.0 91 +6 +6 980.5 981.0
00 22.04 З 3-5
{9}
10 км {ливн. осадки} 10/10 400 м
[Sc]
+8.3 +6.4 88 +6 +6 979.8 980.0
03 22.04 СЗ 3-6
{8}
3400 м слабый ливневой дождь 10/10 300 м
[Cb cap]
+2.8 +1.6 92 -1 -1 981.7 982.0 +2.8 10
06 22.04 СЗ 6-10
{10}
7000 м слабый снег {ливн. осадки} 10/10 300 м
[Sc]
+0.5 -1.6 86 -6 -6 985.4 985.0 +0.5
09 22.04 СЗ 7-12
{12}
1000 м ливневой снег 10/10 300 м
[Cb cap]
0.0 -1.4 90 -7 -7 989.5 990.0
12 22.04 СЗ 7-12
{14}
3500 м слабый снег {ливн. осадки} 10/8 300 м
[Sc Ac As]
+0.7 -1.2 87 -6 -6 993.6 994.0
15 22.04 СЗ 5-8
{13}
6000 м слабый снег {ливн. осадки} 10/8 420 м
[Sc Ac As]
+0.3 -1.8 86 -6 -6 997.1 997.0 +2.8 0.8
18 22.04 СЗ 7-11
{11}
10 км слабый снег {ливн. осадки} 9/8 570 м
[Sc Ci fib]
0.0 -3.0 80 -7 -7 999.9 1000.0
21 22.04 СЗ 5-9
{12}
10 км {снег} 9/4 600 м
[Sc Ci fib]
-0.7 -4.7 74 -7 -7 1001.2 1001.0

 

Местоположение метеостанции Нижний Новгород аэропорт (Нижегородская область, Россия): широта 56.22 долгота 43.77 высота над уровнем моря 77 м.

В архиве по умолчанию представлена погода в Нижнем Новгороде аэропорт за последнюю неделю. Архивные данные за месяц целиком и за предыдущие месяцы, начиная с января 2011 года, Вы можете получить, выбрав интересующий диапазон дат из раскрывающегося списка и нажав кнопку "Ввод!".


*Определитесь, кто Вы:
робот инопланетянин человек

Внимание! Время в таблицах - всемирное. Для получения местного времени необходимо прибавить поправку, которая в Нижнем Новгороде аэропорт равна 3 ч.

Смотрите также архив погоды в соседних городах и на ближайших метеорологических станциях:

Погода в Нижнем Новгороде (Нижегородская область, Россия) (15 км)
Погода в Дальнем Константиново (Нижегородская область, Россия) (51 км)
Погода в Павлово (Нижегородская область, Россия) (55 км)
Погода в Волжской ГМО (Нижегородская область, Россия) (55 км)
Погода в Семенове (Нижегородская область, Россия) (73 км)
Погода в Лысково (Нижегородская область, Россия) (82 км)
Погода в Арзамасе (Нижегородская область, Россия) (95 км)
Погода в Вязниках (Владимирская область, Россия) (99 км)
Погода в Воскресенском (Нижегородская область, Россия) (121 км)
Погода в Муроме (Владимирская область, Россия) (129 км)

Пояснения к столбцам:

Ветер - указаны скорость ветра в м/с - средняя за 10 мин, порывы в срок и между сроками (в фигурных скобках) и направление, откуда дует ветер: С - северный, СВ - северо-восточный, В - восточный, ЮВ - юго-восточный, Ю - южный, ЮЗ - юго-западный, З - западный, СЗ - северо-западный.
Видимость - горизонтальная дальность видимости в метрах или километрах. При видимости от 1 до 10 км при отсутствии осадков обычно наблюдается дымка, при ухудшении видимости до 1 км и менее - туман. В сухую погоду видимость может ухудшаться дымом, пылью или мглою.
Явления - указаны атмосферные явления, наблюдавшиеся в срок или в последний час перед сроком; фигурными скобками обозначены явления, наблюдавшиеся между сроками (за 1-3 часа до срока); квадратными скобками обозначены град или гололедные отложения с указанием их диаметра в мм.
Облачность - указаны через наклонную черту общая и нижняя облачность в баллах и высота нижней границы облаков в метрах; квадратными скобками обозначены формы облаков: Ci - перистые, Cs - перисто-слоистые, Cc - перисто-кучевые, Ac - высококучевые, As - высокослоистые, Sc - слоисто-кучевые, Ns - слоисто-дождевые, Cu - кучевые, Cb - кучево-дождевые. Подробнее классификацию облаков см. в Атласе облаков (PDF).
T - Температура воздуха - температура, измеренная на высоте 2 м над землей.
Td - Температура точки росы - температура, при понижении до которой содержащийся в воздухе водяной пар достигнет насыщения.
f - Относительная влажность воздуха - влажноcть воздуха, измеренная на высоте 2 м над землей.
Te - Эффективная температура - температура, которую ощущает одетый по сезону человек в тени. Характеристика душности погоды. При расчете учитывается влияние влажности воздуха и скорости ветра на теплоощущения человека.
Tes - Эффективная температура на солнце - температура, которую ощущает человек, с поправкой на солнечный нагрев. Характеристика знойности погоды. Зависит от высоты солнца над горизонтом, облачности и скорости ветра. Ночью, в пасмурную погоду, а также при ветре 12 м/с и более поправка равна нулю.
P - Атмосферное давление - приведенное к уровню моря атмосферное давление.
Po - Атмосферное давление - измеренное на уровне метеостанции атмосферное давление.
Tmin - Минимальная температура - минимум температуры воздуха на высоте 2 м над землей.
Tmax - Максимальная температура - максимум температуры воздуха на высоте 2 м над землей.
R - Количество осадков - Количество выпавших осадков за период времени, мм. При наведении курсора мыши на число - период времени, за который выпало указанное количество осадков.
R24 - Количество осадков - Количество выпавших осадков за 24 часа, мм.
S - Снежный покров - Высота снежного покрова, см. При наведении курсора мыши на число - состояние снежного покрова и степень покрытия местности в баллах.